Weather History for Horseshoe Bay, TX

Change the Weather History Date:

Thursday, January 10, 2013

  Actual Average (KBMQ) Record (KBMQ)
Temperature  
Mean Temperature 53 °F -  
Max Temperature 62 °F 57 °F 75 °F (2000)
Min Temperature 44 °F 37 °F 23 °F (1999)
Degree Days  
Heating Degree Days 12    
Growing Degree Days 3 (Base 50)    
Moisture  
Dew Point 43 °F    
Average Humidity 73    
Maximum Humidity 100    
Minimum Humidity 48    
Precipitation  
Precipitation 0.00 in - - ()
Sea Level Pressure  
Sea Level Pressure 29.99 in    
Wind  
Wind Speed 6 mph (WSW)    
Max Wind Speed 16 mph    
Max Gust Speed 26 mph    
Visibility 10 miles    
Events      
Averages and records for this station are not official NWS values.
T = Trace of Precipitation, MM = Missing Value Source: NWS Daily Summary

Daily Weather History Graph

Daily Weather History Graph

Search for Another Location

Airport:

Trip Planner

Search our weather history database for the weather conditions in past years. The results will help you decide how hot, cold, wet, or windy it might be!

Date:

Astronomy

Jan. 10, 2013 Rise Set
Actual Time 6:31 AM MST 4:50 PM MST
Civil Twilight 6:05 AM MST 5:17 PM MST
Nautical Twilight 5:35 AM MST 5:46 PM MST
Astronomical Twilight 5:06 AM MST 6:15 PM MST
Moon 5:13 AM MST (1/10) 3:59 PM MST (1/10)
Length of Visible Light 11h 11m
Length of Day
10h 19m
Waning Crescent, 2% of the Moon is Illuminated
Jan 10
Waning Crescent
Jan 11
New
Jan 18
First Quarter
Jan 26
Full
Feb 3
Last Quarter

Hourly Weather History & Observations

Time (MST) Temp. Windchill Dew Point Humidity Pressure Visibility Wind Dir Wind Speed Gust Speed Precip Events Conditions
1:15 AM 46.4 °F 45.2 °F 46.4 °F 100% 29.99 in 10.0 mi SW 3.5 mph - N/A   Clear
1:35 AM 48.2 °F - 48.2 °F 100% 30.00 in 10.0 mi WSW 6.9 mph - N/A   Clear
2:15 AM 46.4 °F 44.3 °F 46.4 °F 100% 30.00 in 10.0 mi WSW 4.6 mph - N/A   Clear
2:35 AM 46.4 °F 44.3 °F 46.4 °F 100% 30.00 in 10.0 mi WSW 4.6 mph - N/A   Clear
3:15 AM 48.2 °F - 48.2 °F 100% 30.00 in 10.0 mi SW 5.8 mph - N/A   Clear
3:35 AM 46.4 °F 42.9 °F 46.4 °F 100% 30.00 in 10.0 mi SW 6.9 mph - N/A   Clear
3:55 AM 46.4 °F 44.3 °F 46.4 °F 100% 29.99 in 10.0 mi SSW 4.6 mph - N/A   Clear
4:15 AM 46.4 °F 44.3 °F 46.4 °F 100% 29.99 in 10.0 mi SW 4.6 mph - N/A   Clear
4:35 AM 46.4 °F 45.2 °F 46.4 °F 100% 29.98 in 10.0 mi SW 3.5 mph - N/A   Clear
5:15 AM 46.4 °F 43.5 °F 46.4 °F 100% 29.98 in 10.0 mi SW 5.8 mph - N/A   Clear
5:35 AM 46.4 °F 42.4 °F 46.4 °F 100% 30.00 in 10.0 mi SW 8.1 mph - N/A   Clear
5:55 AM 46.4 °F 42.9 °F 44.6 °F 93% 30.00 in 10.0 mi SW 6.9 mph - N/A   Clear
6:15 AM 44.6 °F 38.8 °F 42.8 °F 93% 30.00 in 10.0 mi WSW 11.5 mph 20.7 mph N/A   Scattered Clouds
6:35 AM 44.6 °F 41.4 °F 41.0 °F 87% 30.01 in 10.0 mi West 5.8 mph - N/A   Clear
6:55 AM 44.6 °F 40.7 °F 41.0 °F 87% 30.01 in 10.0 mi West 6.9 mph - N/A   Clear
7:15 AM 44.6 °F 40.7 °F 39.2 °F 81% 30.01 in 10.0 mi WSW 6.9 mph - N/A   Clear
7:35 AM 44.6 °F 40.7 °F 41.0 °F 87% 30.01 in 10.0 mi West 6.9 mph - N/A   Clear
8:15 AM 46.4 °F 41.9 °F 41.0 °F 81% 30.01 in 10.0 mi West 9.2 mph 17.3 mph N/A   Clear
8:35 AM 50.0 °F - 41.0 °F 71% 30.03 in 10.0 mi West 15.0 mph 23.0 mph N/A   Clear
8:55 AM 50.0 °F - 41.0 °F 71% 30.03 in 10.0 mi West 12.7 mph 24.2 mph N/A   Clear
9:15 AM 51.8 °F - 41.0 °F 67% 30.02 in 10.0 mi West 12.7 mph 24.2 mph N/A   Clear
9:35 AM 53.6 °F - 41.0 °F 62% 30.03 in 10.0 mi West 11.5 mph 20.7 mph N/A   Clear
9:55 AM 53.6 °F - 41.0 °F 62% 30.02 in 10.0 mi West 12.7 mph 24.2 mph N/A   Clear
10:15 AM 53.6 °F - 41.0 °F 62% 30.02 in 10.0 mi West 16.1 mph 26.5 mph N/A   Scattered Clouds
10:35 AM 53.6 °F - 41.0 °F 62% 30.02 in 10.0 mi West 10.4 mph 23.0 mph N/A   Mostly Cloudy
10:55 AM 55.4 °F - 42.8 °F 63% 30.02 in 10.0 mi West 10.4 mph 18.4 mph N/A   Overcast
11:15 AM 55.4 °F - 41.0 °F 58% 30.01 in 10.0 mi WSW 13.8 mph 21.9 mph N/A   Scattered Clouds
11:35 AM 55.4 °F - 41.0 °F 58% 30.00 in 10.0 mi West 6.9 mph 17.3 mph N/A   Clear
11:55 AM 55.4 °F - 42.8 °F 63% 29.99 in 10.0 mi WNW 9.2 mph - N/A   Scattered Clouds
12:15 PM 59.0 °F - 42.8 °F 55% 29.99 in 10.0 mi West 6.9 mph - N/A   Scattered Clouds
12:35 PM 59.0 °F - 42.8 °F 55% 29.99 in 10.0 mi WNW 4.6 mph - N/A   Scattered Clouds
12:55 PM 59.0 °F - 42.8 °F 55% 29.98 in 10.0 mi WSW 5.8 mph - N/A   Scattered Clouds
1:15 PM 60.8 °F - 42.8 °F 52% 29.96 in 10.0 mi WNW 6.9 mph - N/A   Clear
1:35 PM 60.8 °F - 42.8 °F 52% 29.96 in 10.0 mi West 5.8 mph - N/A   Clear
1:55 PM 62.6 °F - 42.8 °F 48% 29.96 in 10.0 mi WNW 5.8 mph - N/A   Clear
2:15 PM 62.6 °F - 42.8 °F 48% 29.97 in 10.0 mi WNW 3.5 mph - N/A   Clear
2:35 PM 62.6 °F - 42.8 °F 48% 29.97 in 10.0 mi NW 5.8 mph - N/A   Clear
2:55 PM 62.6 °F - 42.8 °F 48% 29.96 in 10.0 mi West 4.6 mph - N/A   Clear
3:15 PM 62.6 °F - 42.8 °F 48% 29.97 in 10.0 mi SW 5.8 mph - N/A   Clear
3:35 PM 62.6 °F - 42.8 °F 48% 29.97 in 10.0 mi Calm Calm - N/A   Clear
3:55 PM 62.6 °F - 42.8 °F 48% 29.97 in 10.0 mi Calm Calm - N/A   Clear
4:15 PM 62.6 °F - 42.8 °F 48% 29.98 in 10.0 mi WSW 3.5 mph - N/A   Clear
4:35 PM 60.8 °F - 42.8 °F 52% 29.97 in 10.0 mi Calm Calm - N/A   Clear
5:15 PM 53.6 °F - 42.8 °F 67% 29.97 in 10.0 mi Calm Calm - N/A   Clear
5:35 PM 51.8 °F - 42.8 °F 71% 29.97 in 10.0 mi Calm Calm - N/A   Clear
5:55 PM 50.0 °F - 42.8 °F 76% 29.98 in 10.0 mi South 3.5 mph - N/A   Clear
6:15 PM 50.0 °F - 42.8 °F 76% 29.98 in 10.0 mi South 3.5 mph - N/A   Clear
6:35 PM 50.0 °F - 42.8 °F 76% 29.98 in 10.0 mi South 4.6 mph - N/A   Clear
6:55 PM 48.2 °F - 42.8 °F 82% 29.98 in 10.0 mi South 3.5 mph - N/A   Clear
7:15 PM 46.4 °F 45.2 °F 42.8 °F 87% 29.98 in 10.0 mi South 3.5 mph - N/A   Clear
7:35 PM 48.2 °F - 42.8 °F 82% 29.98 in 10.0 mi Calm Calm - N/A   Clear
7:55 PM 46.4 °F 45.2 °F 42.8 °F 87% 29.98 in 10.0 mi South 3.5 mph - N/A   Clear
8:15 PM 46.4 °F 43.5 °F 42.8 °F 87% 29.99 in 10.0 mi South 5.8 mph - N/A   Clear
8:35 PM 50.0 °F - 42.8 °F 76% 29.99 in 10.0 mi South 5.8 mph - N/A   Clear
8:55 PM 51.8 °F - 42.8 °F 71% 29.99 in 10.0 mi SSW 4.6 mph - N/A   Clear
9:15 PM 51.8 °F - 42.8 °F 71% 29.98 in 10.0 mi SSW 4.6 mph - N/A   Clear
9:35 PM 53.6 °F - 42.8 °F 67% 29.98 in 10.0 mi SSW 4.6 mph - N/A   Clear
9:55 PM 53.6 °F - 41.0 °F 62% 29.98 in 10.0 mi SSW 4.6 mph - N/A   Clear
10:15 PM 53.6 °F - 41.0 °F 62% 29.99 in 10.0 mi SSW 3.5 mph - N/A   Clear
10:35 PM 53.6 °F - 41.0 °F 62% 29.98 in 10.0 mi SSW 3.5 mph - N/A   Clear
10:55 PM 51.8 °F - 41.0 °F 67% 29.98 in 10.0 mi SSW 3.5 mph - N/A   Clear
11:15 PM 51.8 °F - 41.0 °F 67% 29.97 in 10.0 mi WSW 5.8 mph - N/A   Clear
11:35 PM 51.8 °F - 41.0 °F 67% 29.97 in 10.0 mi West 3.5 mph - N/A   Clear
11:55 PM 46.4 °F - 41.0 °F 81% 29.98 in 10.0 mi Calm Calm - N/A   Clear